Terminal Aerodrome Forecast
Issued by NWS Portland, OR

Home | Current Version | Previous Version | Text Only | Print | Product List | Glossary On
Versions: 1 2 3 4 5 6 7 8 9 10 11 12 13 14 15 16 17 18 19 20 21 22 23 24 25 26 27 28
276
FTUS46 KPQR 271145
TAFHIO
TAF
KHIO 271145Z 2712/2812 VRB03KT P6SM SCT025 BKN040
     FM271700 32007KT P6SM BKN050
     FM280400 VRB03KT P6SM OVC035=

USA.gov is the U.S. government's official web portal to all federal, state and local government web resources and services.